09-11-2023, 00:00:03,    174,    0.0,    3.8,   0.00,   0.00,  999.7,    0.4, -999.0
09-11-2023, 00:00:13,    174,    0.0,    3.8,   0.00,   0.00,  999.7,    0.7, -999.0
09-11-2023, 00:00:23,    174,    0.0,    3.8,   0.00,   0.00,  999.8,    0.4, -999.0
09-11-2023, 00:00:33,    174,    0.0,    3.8,   0.00,   0.00,  999.7,    0.3, -999.0
09-11-2023, 00:00:42,    174,    0.1,    3.8,   0.00,   0.00,  999.8,    0.5, -999.0
09-11-2023, 00:00:53,    174,    0.0,    3.8,   0.00,   0.00,  999.7,    0.4, -999.0
09-11-2023, 00:01:03,    174,    0.1,    3.7,   0.00,   0.00,  999.8,    0.6, -999.0
09-11-2023, 00:01:12,    175,    0.0,    3.7,   0.00,   0.00,  999.8,    0.8, -999.0
09-11-2023, 00:01:22,    174,    0.0,    3.7,   0.00,   0.00,  999.7,    0.5, -999.0
09-11-2023, 00:01:33,    174,    0.1,    3.7,   0.00,   0.00,  999.8,    0.8, -999.0
09-11-2023, 00:01:43,    174,    0.0,    3.8,   0.00,   0.00,  999.7,    0.4, -999.0
09-11-2023, 00:01:52,    120,    0.2,    3.7,   0.00,   0.00,  999.7,    0.5, -999.0
09-11-2023, 00:02:02,    159,    2.0,    3.8,   0.00,   0.00,  999.9,    0.5, -999.0
09-11-2023, 00:02:13,    172,    0.6,    3.8,   0.00,   0.00,  999.8,    0.6, -999.0
09-11-2023, 00:02:22,    170,    0.0,    3.7,   0.00,   0.00,  999.7,    0.7, -999.0
09-11-2023, 00:02:32,    172,    0.0,    3.7,   0.00,   0.00,  999.7,    0.5, -999.0
09-11-2023, 00:02:42,    172,    0.0,    3.7,   0.00,   0.00,  999.7,    0.6, -999.0
09-11-2023, 00:02:52,    172,    0.0,    3.7,   0.00,   0.00,  999.7,    0.4, -999.0
09-11-2023, 00:03:02,    172,    0.0,    3.7,   0.00,   0.00,  999.7,    0.7, -999.0
09-11-2023, 00:03:12,    172,    0.0,    3.7,   0.00,   0.00,  999.7,    0.6, -999.0
09-11-2023, 00:03:23,    172,    0.0,    3.7,   0.00,   0.00,  999.7,    0.7, -999.0
09-11-2023, 00:03:32,    172,    0.2,    3.8,   0.00,   0.00,  999.8,    0.7, -999.0
09-11-2023, 00:03:42,    172,    0.5,    3.8,   0.00,   0.00,  999.8,    0.7, -999.0
09-11-2023, 00:03:52,    172,    0.2,    3.8,   0.00,   0.00,  999.8,    0.4, -999.0
09-11-2023, 00:04:02,    172,    0.0,    3.7,   0.00,   0.00,  999.7,    0.4, -999.0
09-11-2023, 00:04:12,    171,    0.7,    3.8,   0.00,   0.00,  999.8,    0.9, -999.0
09-11-2023, 00:04:22,    172,    0.3,    3.8,   0.00,   0.00,  999.8,    0.8, -999.0
09-11-2023, 00:04:32,    171,    0.2,    3.8,   0.00,   0.00,  999.8,    0.7, -999.0
09-11-2023, 00:04:42,    171,    0.2,    3.8,   0.00,   0.00,  999.7,    0.6, -999.0
09-11-2023, 00:04:52,    171,    0.0,    3.8,   0.00,   0.00,  999.7,    0.5, -999.0
09-11-2023, 00:05:02,    171,    0.0,    3.8,   0.00,   0.00,  999.7,    0.5, -999.0
09-11-2023, 00:05:12,    172,    0.2,    3.8,   0.00,   0.00,  999.7,    0.6, -999.0
09-11-2023, 00:05:22,    171,    0.4,    3.9,   0.00,   0.00,  999.8,    0.6, -999.0
09-11-2023, 00:05:32,    171,    0.0,    3.8,   0.00,   0.00,  999.7,    0.6, -999.0
09-11-2023, 00:05:42,    171,    0.0,    3.8,   0.00,   0.00,  999.7,    0.6, -999.0
09-11-2023, 00:05:52,    171,    0.1,    3.8,   0.00,   0.00,  999.7,    0.6, -999.0
09-11-2023, 00:06:02,    171,    0.0,    3.8,   0.00,   0.00,  999.7,    0.6, -999.0
09-11-2023, 00:06:12,    171,    0.4,    3.9,   0.00,   0.00,  999.8,    0.7, -999.0
09-11-2023, 00:06:22,    171,    0.7,    3.9,   0.00,   0.00,  999.8,    0.6, -999.0
09-11-2023, 00:06:32,    171,    0.7,    3.8,   0.00,   0.00,  999.8,    0.4, -999.0
09-11-2023, 00:06:42,    171,    0.1,    3.8,   0.00,   0.00,  999.7,    0.6, -999.0
09-11-2023, 00:06:52,    172,    0.4,    3.8,   0.00,   0.00,  999.8,    0.8, -999.0
09-11-2023, 00:07:02,    171,    0.0,    3.7,   0.00,   0.00,  999.7,    0.6, -999.0
09-11-2023, 00:07:12,    171,    0.0,    3.7,   0.00,   0.00,  999.7,    0.4, -999.0
09-11-2023, 00:07:22,    171,    0.0,    3.8,   0.00,   0.00,  999.7,    0.5, -999.0
09-11-2023, 00:07:32,    172,    0.0,    3.8,   0.00,   0.00,  999.7,    0.5, -999.0
09-11-2023, 00:07:42,    171,    0.0,    3.8,   0.00,   0.00,  999.7,    0.7, -999.0
09-11-2023, 00:07:52,    171,    0.0,    3.8,   0.00,   0.00,  999.7,    0.5, -999.0
09-11-2023, 00:08:02,    171,    0.0,    3.8,   0.00,   0.00,  999.7,    0.4, -999.0
09-11-2023, 00:08:12,    171,    0.0,    3.8,   0.00,   0.00,  999.7,    0.6, -999.0
09-11-2023, 00:08:22,    171,    0.0,    3.7,   0.00,   0.00,  999.7,    0.7, -999.0
09-11-2023, 00:08:32,    171,    0.0,    3.8,   0.00,   0.00,  999.7,    0.5, -999.0
09-11-2023, 00:08:42,    171,    0.0,    3.8,   0.00,   0.00,  999.7,    0.4, -999.0
09-11-2023, 00:08:52,    171,    0.0,    3.8,   0.00,   0.00,  999.7,    0.6, -999.0
09-11-2023, 00:09:01,    171,    0.2,    3.8,   0.00,   0.00,  999.8,    0.5, -999.0
09-11-2023, 00:09:12,    171,    0.0,    3.7,   0.00,   0.00,  999.7,    0.6, -999.0
09-11-2023, 00:09:22,    171,    0.0,    3.7,   0.00,   0.00,  999.7,    0.7, -999.0
09-11-2023, 00:09:31,    171,    0.0,    3.8,   0.00,   0.00,  999.7,    0.5, -999.0
09-11-2023, 00:09:42,    172,    0.0,    3.8,   0.00,   0.00,  999.7,    0.7, -999.0
09-11-2023, 00:09:52,    172,    0.0,    3.8,   0.00,   0.00,  999.7,    0.4, -999.0
09-11-2023, 00:10:01,    171,    0.0,    3.8,   0.00,   0.00,  999.7,    0.7, -999.0
09-11-2023, 00:10:11,    172,    0.0,    3.8,   0.00,   0.00,  999.7,    0.3, -999.0
09-11-2023, 00:10:22,    172,    0.0,    3.8,   0.00,   0.00,  999.7,    0.5, -999.0
09-11-2023, 00:10:32,    171,    0.2,    3.8,   0.00,   0.00,  999.7,    0.6, -999.0
09-11-2023, 00:10:41,    171,    0.0,    3.8,   0.00,   0.00,  999.7,    0.6, -999.0
09-11-2023, 00:10:51,    171,    0.0,    3.8,   0.00,   0.00,  999.7,    0.4, -999.0
09-11-2023, 00:11:02,    171,    0.0,    3.8,   0.00,   0.00,  999.7,    0.4, -999.0
09-11-2023, 00:11:11,    171,    0.0,    3.7,   0.00,   0.00,  999.7,    0.6, -999.0
09-11-2023, 00:11:21,    171,    0.0,    3.7,   0.00,   0.00,  999.7,    0.8, -999.0
09-11-2023, 00:11:31,    171,    0.0,    3.6,   0.00,   0.00,  999.7,    0.6, -999.0
09-11-2023, 00:11:42,    171,    0.0,    3.7,   0.00,   0.00,  999.7,    0.6, -999.0
09-11-2023, 00:11:51,    171,    0.0,    3.7,   0.00,   0.00,  999.6,    0.5, -999.0
09-11-2023, 00:12:01,    171,    0.0,    3.8,   0.00,   0.00,  999.6,    0.5, -999.0
09-11-2023, 00:12:11,    171,    0.0,    3.8,   0.00,   0.00,  999.6,    0.5, -999.0
09-11-2023, 00:12:21,    171,    0.0,    3.8,   0.00,   0.00,  999.6,    0.7, -999.0
09-11-2023, 00:12:31,    171,    0.0,    3.8,   0.00,   0.00,  999.7,    0.5, -999.0
09-11-2023, 00:12:41,    171,    0.3,    3.8,   0.00,   0.00,  999.8,    0.6, -999.0
09-11-2023, 00:12:51,    169,    0.0,    3.8,   0.00,   0.00,  999.7,    0.5, -999.0
09-11-2023, 00:13:01,    171,    0.0,    3.8,   0.00,   0.00,  999.6,    0.6, -999.0
09-11-2023, 00:13:11,    171,    0.0,    3.8,   0.00,   0.00,  999.6,    0.5, -999.0
09-11-2023, 00:13:21,    170,    0.0,    3.8,   0.00,   0.00,  999.6,    0.5, -999.0
09-11-2023, 00:13:31,    171,    0.0,    3.8,   0.00,   0.00,  999.6,    0.7, -999.0
09-11-2023, 00:13:41,    171,    0.0,    3.8,   0.00,   0.00,  999.6,    0.6, -999.0
09-11-2023, 00:13:51,    171,    0.2,    3.8,   0.00,   0.00,  999.7,    0.7, -999.0
09-11-2023, 00:14:01,    170,    0.1,    3.9,   0.00,   0.00,  999.7,    0.8, -999.0
09-11-2023, 00:14:11,    171,    0.0,    3.8,   0.00,   0.00,  999.6,    0.3, -999.0
09-11-2023, 00:14:21,    170,    0.0,    3.8,   0.00,   0.00,  999.6,    0.8, -999.0
09-11-2023, 00:14:31,    171,    0.0,    3.8,   0.00,   0.00,  999.6,    0.6, -999.0
09-11-2023, 00:14:41,    171,    0.0,    3.8,   0.00,   0.00,  999.6,    0.8, -999.0
09-11-2023, 00:14:51,    171,    0.0,    3.8,   0.00,   0.00,  999.6,    0.4, -999.0
09-11-2023, 00:15:01,    171,    0.0,    3.8,   0.00,   0.00,  999.6,    0.7, -999.0
09-11-2023, 00:15:11,    171,    0.0,    3.8,   0.00,   0.00,  999.6,    0.5, -999.0
09-11-2023, 00:15:21,    170,    0.0,    3.8,   0.00,   0.00,  999.7,    0.5, -999.0
09-11-2023, 00:15:31,    170,    0.0,    3.8,   0.00,   0.00,  999.6,    0.7, -999.0
09-11-2023, 00:15:41,    170,    0.0,    3.8,   0.00,   0.00,  999.6,    0.6, -999.0
09-11-2023, 00:15:51,    171,    0.0,    3.8,   0.00,   0.00,  999.6,    0.6, -999.0
09-11-2023, 00:16:01,    170,    0.0,    3.7,   0.00,   0.00,  999.6,    0.5, -999.0
09-11-2023, 00:16:11,    170,    0.0,    3.7,   0.00,   0.00,  999.6,    0.5, -999.0
09-11-2023, 00:16:21,    171,    0.0,    3.8,   0.00,   0.00,  999.6,    0.6, -999.0
09-11-2023, 00:16:31,    171,    0.0,    3.7,   0.00,   0.00,  999.6,    0.8, -999.0
09-11-2023, 00:16:41,    171,    0.0,    3.7,   0.00,   0.00,  999.6,    0.6, -999.0
09-11-2023, 00:16:51,    171,    0.0,    3.7,   0.00,   0.00,  999.5,    0.8, -999.0
09-11-2023, 00:17:01,    171,    0.0,    3.7,   0.00,   0.00,  999.5,    0.5, -999.0
09-11-2023, 00:17:11,    171,    0.0,    3.8,   0.00,   0.00,  999.5,    0.6, -999.0
09-11-2023, 00:17:23,    171,    0.4,    3.8,   0.00,   0.00,  999.6,    0.6, -999.0
09-11-2023, 00:17:31,    171,    0.0,    3.7,   0.00,   0.00,  999.6,    0.6, -999.0
09-11-2023, 00:17:41,    169,    0.7,    3.7,   0.00,   0.00,  999.7,    0.5, -999.0
09-11-2023, 00:17:50,    169,    0.0,    3.7,   0.00,   0.00,  999.5,    0.5, -999.0
09-11-2023, 00:18:01,    169,    0.0,    3.6,   0.00,   0.00,  999.5,    0.7, -999.0
09-11-2023, 00:18:11,    169,    0.0,    3.6,   0.00,   0.00,  999.5,    0.4, -999.0
09-11-2023, 00:18:20,    168,    0.0,    3.6,   0.00,   0.00,  999.5,    0.6, -999.0
09-11-2023, 00:18:30,    169,    0.0,    3.7,   0.00,   0.00,  999.5,    0.6, -999.0
09-11-2023, 00:18:41,    169,    0.0,    3.7,   0.00,   0.00,  999.5,    0.6, -999.0
09-11-2023, 00:18:50,    169,    0.0,    3.7,   0.00,   0.00,  999.5,    0.5, -999.0
09-11-2023, 00:19:00,    169,    0.0,    3.7,   0.00,   0.00,  999.5,    0.6, -999.0
09-11-2023, 00:19:11,    168,    0.1,    3.7,   0.00,   0.00,  999.6,    0.6, -999.0
09-11-2023, 00:19:21,    169,    0.0,    3.7,   0.00,   0.00,  999.5,    0.6, -999.0
09-11-2023, 00:19:30,    168,    0.0,    3.7,   0.00,   0.00,  999.5,    0.6, -999.0
09-11-2023, 00:19:40,    169,    0.0,    3.7,   0.00,   0.00,  999.5,    0.7, -999.0
09-11-2023, 00:19:51,    169,    0.0,    3.7,   0.00,   0.00,  999.5,    0.5, -999.0
09-11-2023, 00:20:00,    169,    0.0,    3.7,   0.00,   0.00,  999.5,    0.7, -999.0
09-11-2023, 00:20:10,    169,    0.0,    3.7,   0.00,   0.00,  999.5,    0.6, -999.0
09-11-2023, 00:20:20,    169,    0.0,    3.6,   0.00,   0.00,  999.5,    0.4, -999.0
09-11-2023, 00:20:30,    169,    0.0,    3.5,   0.00,   0.00,  999.5,    0.5, -999.0
09-11-2023, 00:20:40,    169,    0.0,    3.6,   0.00,   0.00,  999.5,    0.8, -999.0
09-11-2023, 00:20:50,    169,    0.0,    3.7,   0.00,   0.00,  999.5,    0.5, -999.0
09-11-2023, 00:21:00,    169,    0.0,    3.6,   0.00,   0.00,  999.5,    0.6, -999.0
09-11-2023, 00:21:10,    169,    0.7,    3.7,   0.00,   0.00,  999.6,    0.9, -999.0
09-11-2023, 00:21:20,    169,    0.9,    3.7,   0.00,   0.00,  999.7,    0.6, -999.0
09-11-2023, 00:21:30,    169,    0.3,    3.7,   0.00,   0.00,  999.6,    0.7, -999.0
09-11-2023, 00:21:40,    169,    0.0,    3.6,   0.00,   0.00,  999.5,    0.7, -999.0
09-11-2023, 00:21:50,    169,    0.2,    3.6,   0.00,   0.00,  999.6,    0.6, -999.0
09-11-2023, 00:22:00,    169,    1.0,    3.7,   0.00,   0.00,  999.6,    0.6, -999.0
09-11-2023, 00:22:10,    169,    0.8,    3.7,   0.00,   0.00,  999.6,    0.6, -999.0
09-11-2023, 00:22:20,    168,    0.1,    3.7,   0.00,   0.00,  999.6,    0.5, -999.0
09-11-2023, 00:22:30,    168,    0.0,    3.6,   0.00,   0.00,  999.5,    0.7, -999.0
09-11-2023, 00:22:40,    168,    0.0,    3.6,   0.00,   0.00,  999.5,    0.5, -999.0
09-11-2023, 00:22:50,    169,    0.0,    3.6,   0.00,   0.00,  999.5,    0.5, -999.0
09-11-2023, 00:23:00,    168,    0.0,    3.6,   0.00,   0.00,  999.5,    0.7, -999.0
09-11-2023, 00:23:10,    168,    0.0,    3.6,   0.00,   0.00,  999.5,    0.6, -999.0
09-11-2023, 00:23:20,    169,    0.0,    3.6,   0.00,   0.00,  999.5,    0.5, -999.0
09-11-2023, 00:23:30,    169,    0.1,    3.7,   0.00,   0.00,  999.5,    0.6, -999.0
09-11-2023, 00:23:40,    168,    0.3,    3.6,   0.00,   0.00,  999.6,    0.6, -999.0
09-11-2023, 00:23:50,    167,    0.0,    3.6,   0.00,   0.00,  999.5,    0.1, -999.0
09-11-2023, 00:24:00,    168,    0.0,    3.6,   0.00,   0.00,  999.5,    0.7, -999.0
09-11-2023, 00:24:10,    169,    0.0,    3.6,   0.00,   0.00,  999.5,    0.6, -999.0
09-11-2023, 00:24:20,    168,    0.0,    3.6,   0.00,   0.00,  999.5,    0.6, -999.0
09-11-2023, 00:24:30,    168,    0.0,    3.6,   0.00,   0.00,  999.5,    0.5, -999.0
09-11-2023, 00:24:40,    168,    0.2,    3.6,   0.00,   0.00,  999.5,    0.6, -999.0
09-11-2023, 00:24:50,    168,    0.4,    3.7,   0.00,   0.00,  999.6,    0.6, -999.0
09-11-2023, 00:25:00,    168,    0.0,    3.6,   0.00,   0.00,  999.4,    0.6, -999.0
09-11-2023, 00:25:10,    168,    0.0,    3.6,   0.00,   0.00,  999.5,    0.4, -999.0
09-11-2023, 00:25:20,    168,    0.1,    3.7,   0.00,   0.00,  999.5,    0.5, -999.0
09-11-2023, 00:25:29,    168,    0.0,    3.6,   0.00,   0.00,  999.5,    0.4, -999.0
09-11-2023, 00:25:40,    168,    0.0,    3.6,   0.00,   0.00,  999.5,    0.8, -999.0
09-11-2023, 00:25:50,    168,    0.0,    3.6,   0.00,   0.00,  999.5,    0.4, -999.0
09-11-2023, 00:25:59,    168,    0.0,    3.6,   0.00,   0.00,  999.5,    0.6, -999.0
09-11-2023, 00:26:09,    168,    0.0,    3.6,   0.00,   0.00,  999.5,    0.7, -999.0
09-11-2023, 00:26:20,    168,    0.0,    3.7,   0.00,   0.00,  999.5,    0.6, -999.0
09-11-2023, 00:26:30,    168,    0.0,    3.6,   0.00,   0.00,  999.5,    0.8, -999.0
09-11-2023, 00:26:39,    168,    0.0,    3.6,   0.00,   0.00,  999.4,    0.6, -999.0
09-11-2023, 00:26:50,    168,    0.0,    3.6,   0.00,   0.00,  999.4,    0.5, -999.0
09-11-2023, 00:27:00,    168,    0.2,    3.6,   0.00,   0.00,  999.5,    0.5, -999.0
09-11-2023, 00:27:09,    168,    0.6,    3.7,   0.00,   0.00,  999.6,    0.9, -999.0
09-11-2023, 00:27:19,    168,    0.0,    3.6,   0.00,   0.00,  999.5,    0.5, -999.0
09-11-2023, 00:27:30,    168,    0.0,    3.5,   0.00,   0.00,  999.4,    0.7, -999.0
09-11-2023, 00:27:39,    167,    0.0,    3.6,   0.00,   0.00,  999.5,    0.6, -999.0
09-11-2023, 00:27:49,    168,    0.0,    3.6,   0.00,   0.00,  999.4,    0.5, -999.0
09-11-2023, 00:27:59,    168,    0.0,    3.6,   0.00,   0.00,  999.4,    0.5, -999.0
09-11-2023, 00:28:10,    168,    0.1,    3.6,   0.00,   0.00,  999.5,    0.6, -999.0
09-11-2023, 00:28:19,    168,    0.0,    3.6,   0.00,   0.00,  999.4,    0.5, -999.0
09-11-2023, 00:28:29,    168,    0.0,    3.6,   0.00,   0.00,  999.5,    0.7, -999.0
09-11-2023, 00:28:39,    168,    0.0,    3.6,   0.00,   0.00,  999.5,    0.5, -999.0
09-11-2023, 00:28:49,    168,    0.0,    3.7,   0.00,   0.00,  999.5,    0.8, -999.0
09-11-2023, 00:28:59,    168,    0.0,    3.7,   0.00,   0.00,  999.5,    1.0, -999.0
09-11-2023, 00:29:09,    168,    0.0,    3.6,   0.00,   0.00,  999.4,    0.3, -999.0
09-11-2023, 00:29:19,    168,    0.0,    3.6,   0.00,   0.00,  999.4,    0.6, -999.0
09-11-2023, 00:29:29,    168,    0.0,    3.6,   0.00,   0.00,  999.4,    0.7, -999.0
09-11-2023, 00:29:39,    168,    0.0,    3.6,   0.00,   0.00,  999.4,    0.5, -999.0
09-11-2023, 00:29:49,    168,    0.0,    3.7,   0.00,   0.00,  999.4,    0.8, -999.0
09-11-2023, 00:29:59,    167,    0.0,    3.6,   0.00,   0.00,  999.4,    0.6, -999.0
09-11-2023, 00:30:09,    167,    0.0,    3.6,   0.00,   0.00,  999.3,    0.5, -999.0
09-11-2023, 00:30:19,    168,    0.0,    3.6,   0.00,   0.00,  999.3,    0.5, -999.0
09-11-2023, 00:30:29,    168,    0.0,    3.6,   0.00,   0.00,  999.4,    0.4, -999.0
09-11-2023, 00:30:39,    168,    0.0,    3.6,   0.00,   0.00,  999.4,    0.5, -999.0
09-11-2023, 00:30:49,    168,    0.0,    3.6,   0.00,   0.00,  999.4,    0.4, -999.0
09-11-2023, 00:31:00,    168,    0.0,    3.6,   0.00,   0.00,  999.4,    0.5, -999.0
09-11-2023, 00:31:09,    168,    0.0,    3.7,   0.00,   0.00,  999.4,    0.5, -999.0
09-11-2023, 00:31:19,    168,    0.0,    3.7,   0.00,   0.00,  999.4,    0.5, -999.0
09-11-2023, 00:31:29,    168,    0.0,    3.7,   0.00,   0.00,  999.4,    0.7, -999.0
09-11-2023, 00:31:39,    168,    0.0,    3.7,   0.00,   0.00,  999.4,    0.5, -999.0
09-11-2023, 00:31:49,    168,    0.0,    3.7,   0.00,   0.00,  999.4,    0.6, -999.0
09-11-2023, 00:31:59,    168,    0.0,    3.6,   0.00,   0.00,  999.4,    0.5, -999.0
09-11-2023, 00:32:09,    168,    0.0,    3.6,   0.00,   0.00,  999.4,    0.7, -999.0
09-11-2023, 00:32:19,    168,    0.0,    3.6,   0.00,   0.00,  999.4,    0.6, -999.0
09-11-2023, 00:32:29,    168,    0.1,    3.6,   0.00,   0.00,  999.4,    0.5, -999.0
09-11-2023, 00:32:39,    168,    0.0,    3.7,   0.00,   0.00,  999.4,    0.6, -999.0
09-11-2023, 00:32:49,    168,    0.0,    3.6,   0.00,   0.00,  999.4,    0.7, -999.0
09-11-2023, 00:32:59,    167,    0.0,    3.6,   0.00,   0.00,  999.4,    0.4, -999.0
09-11-2023, 00:33:09,    167,    0.0,    3.6,   0.00,   0.00,  999.3,    0.6, -999.0
09-11-2023, 00:33:19,    168,    0.0,    3.7,   0.00,   0.00,  999.4,    0.4, -999.0
09-11-2023, 00:33:29,    168,    0.0,    3.6,   0.00,   0.00,  999.3,    0.5, -999.0
09-11-2023, 00:33:39,    168,    0.0,    3.5,   0.00,   0.00,  999.4,    0.5, -999.0
09-11-2023, 00:33:49,    168,    0.3,    3.6,   0.00,   0.00,  999.5,    0.7, -999.0
09-11-2023, 00:33:59,    167,    0.0,    3.6,   0.00,   0.00,  999.4,    0.4, -999.0
09-11-2023, 00:34:09,    167,    0.0,    3.6,   0.00,   0.00,  999.4,    0.5, -999.0
09-11-2023, 00:34:18,    168,    0.0,    3.7,   0.00,   0.00,  999.4,    0.5, -999.0
09-11-2023, 00:34:29,    167,    0.0,    3.6,   0.00,   0.00,  999.4,    0.4, -999.0
09-11-2023, 00:34:39,    168,    0.0,    3.6,   0.00,   0.00,  999.4,    0.5, -999.0
09-11-2023, 00:34:49,    168,    0.0,    3.7,   0.00,   0.00,  999.4,    0.4, -999.0
09-11-2023, 00:34:58,    167,    0.0,    3.6,   0.00,   0.00,  999.4,    0.5, -999.0
09-11-2023, 00:35:09,    168,    0.0,    3.6,   0.00,   0.00,  999.3,    0.5, -999.0
09-11-2023, 00:35:19,    167,    0.0,    3.6,   0.00,   0.00,  999.3,    0.5, -999.0
09-11-2023, 00:35:28,    168,    0.0,    3.6,   0.00,   0.00,  999.3,    0.6, -999.0
09-11-2023, 00:35:38,    167,    0.0,    3.6,   0.00,   0.00,  999.3,    0.5, -999.0
09-11-2023, 00:35:49,    168,    0.0,    3.6,   0.00,   0.00,  999.3,    0.5, -999.0
09-11-2023, 00:35:59,    167,    1.4,    3.7,   0.00,   0.00,  999.4,    0.7, -999.0
09-11-2023, 00:36:08,    167,    1.3,    3.7,   0.00,   0.00,  999.4,    0.5, -999.0
09-11-2023, 00:36:18,    166,    0.1,    3.7,   0.00,   0.00,  999.4,    0.6, -999.0
09-11-2023, 00:36:29,    166,    0.0,    3.6,   0.00,   0.00,  999.3,    0.5, -999.0
09-11-2023, 00:36:38,    166,    0.0,    3.6,   0.00,   0.00,  999.3,    0.5, -999.0
09-11-2023, 00:36:48,    171,    0.0,    3.7,   0.00,   0.00,  999.3,    0.6, -999.0
09-11-2023, 00:36:58,    166,    0.0,    3.6,   0.00,   0.00,  999.3,    0.5, -999.0
09-11-2023, 00:37:08,    167,    0.0,    3.6,   0.00,   0.00,  999.3,    0.6, -999.0
09-11-2023, 00:37:18,    166,    0.0,    3.6,   0.00,   0.00,  999.3,    0.5, -999.0
09-11-2023, 00:37:28,    166,    0.0,    3.7,   0.00,   0.00,  999.3,    0.5, -999.0
09-11-2023, 00:37:38,    166,    0.0,    3.6,   0.00,   0.00,  999.3,    0.6, -999.0
09-11-2023, 00:37:48,    166,    0.0,    3.6,   0.00,   0.00,  999.3,    0.5, -999.0
09-11-2023, 00:37:58,    167,    0.0,    3.7,   0.00,   0.00,  999.3,    0.4, -999.0
09-11-2023, 00:38:08,    167,    0.1,    3.7,   0.00,   0.00,  999.3,    0.7, -999.0
09-11-2023, 00:38:18,    172,    0.8,    3.7,   0.00,   0.00,  999.4,    0.3, -999.0
09-11-2023, 00:38:28,    170,    0.9,    3.7,   0.00,   0.00,  999.4,    0.6, -999.0
09-11-2023, 00:38:38,    170,    0.0,    3.7,   0.00,   0.00,  999.3,    0.6, -999.0
09-11-2023, 00:38:48,    171,    0.0,    3.6,   0.00,   0.00,  999.3,    0.5, -999.0
09-11-2023, 00:38:58,    171,    0.0,    3.7,   0.00,   0.00,  999.3,    0.5, -999.0
09-11-2023, 00:39:08,    171,    0.0,    3.6,   0.00,   0.00,  999.3,    0.7, -999.0
09-11-2023, 00:39:18,    171,    0.0,    3.6,   0.00,   0.00,  999.3,    0.6, -999.0
09-11-2023, 00:39:28,    169,    0.7,    3.7,   0.00,   0.00,  999.4,    0.6, -999.0
09-11-2023, 00:39:38,    169,    0.5,    3.6,   0.00,   0.00,  999.4,    0.5, -999.0
09-11-2023, 00:39:48,    169,    0.0,    3.5,   0.00,   0.00,  999.3,    0.5, -999.0
09-11-2023, 00:39:58,    167,    0.4,    3.7,   0.00,   0.00,  999.4,    0.6, -999.0
09-11-2023, 00:40:08,    169,    0.0,    3.6,   0.00,   0.00,  999.3,    0.5, -999.0
09-11-2023, 00:40:18,    168,    0.0,    3.6,   0.00,   0.00,  999.3,    0.7, -999.0
09-11-2023, 00:40:28,    168,    0.0,    3.6,   0.00,   0.00,  999.3,    0.4, -999.0
09-11-2023, 00:40:38,    169,    0.0,    3.5,   0.00,   0.00,  999.3,    0.6, -999.0
09-11-2023, 00:40:48,    168,    0.6,    3.7,   0.00,   0.00,  999.4,    0.5, -999.0
09-11-2023, 00:40:58,    169,    0.0,    3.5,   0.00,   0.00,  999.3,    0.6, -999.0
09-11-2023, 00:41:08,    168,    0.0,    3.6,   0.00,   0.00,  999.3,    0.5, -999.0
09-11-2023, 00:41:18,    169,    0.0,    3.6,   0.00,   0.00,  999.3,    0.4, -999.0
09-11-2023, 00:41:28,    169,    0.6,    3.7,   0.00,   0.00,  999.4,    0.5, -999.0
09-11-2023, 00:41:38,    168,    0.4,    3.6,   0.00,   0.00,  999.4,    0.2, -999.0
09-11-2023, 00:41:48,    176,    0.2,    3.7,   0.00,   0.00,  999.4,    0.7, -999.0
09-11-2023, 00:41:58,    176,    0.3,    3.7,   0.00,   0.00,  999.4,    0.4, -999.0
09-11-2023, 00:42:07,    172,    0.4,    3.7,   0.00,   0.00,  999.4,    0.9, -999.0
09-11-2023, 00:42:18,    171,    0.2,    3.7,   0.00,   0.00,  999.4,    0.5, -999.0
09-11-2023, 00:42:28,    171,    0.3,    3.7,   0.00,   0.00,  999.4,    0.5, -999.0
09-11-2023, 00:42:37,    171,    0.0,    3.6,   0.00,   0.00,  999.3,    0.6, -999.0
09-11-2023, 00:42:48,    170,    0.4,    3.7,   0.00,   0.00,  999.3,    0.5, -999.0
09-11-2023, 00:42:58,    169,    0.9,    3.8,   0.00,   0.00,  999.4,    0.9, -999.0
09-11-2023, 00:43:08,    169,    0.3,    3.7,   0.00,   0.00,  999.4,    0.6, -999.0
09-11-2023, 00:43:17,    169,    0.0,    3.6,   0.00,   0.00,  999.3,    0.5, -999.0
09-11-2023, 00:43:28,    168,    0.0,    3.7,   0.00,   0.00,  999.2,    0.8, -999.0
09-11-2023, 00:43:38,    168,    0.0,    3.7,   0.00,   0.00,  999.3,    0.6, -999.0
09-11-2023, 00:43:47,    169,    0.0,    3.7,   0.00,   0.00,  999.2,    0.3, -999.0
09-11-2023, 00:43:57,    169,    0.0,    3.7,   0.00,   0.00,  999.2,    0.4, -999.0
09-11-2023, 00:44:08,    169,    0.0,    3.6,   0.00,   0.00,  999.3,    0.5, -999.0
09-11-2023, 00:44:17,    168,    0.0,    3.7,   0.00,   0.00,  999.3,    0.6, -999.0
09-11-2023, 00:44:27,    169,    0.1,    3.8,   0.00,   0.00,  999.3,    0.7, -999.0
09-11-2023, 00:44:37,    168,    0.0,    3.7,   0.00,   0.00,  999.3,    0.3, -999.0
09-11-2023, 00:44:48,    171,    0.0,    3.7,   0.00,   0.00,  999.3,    0.4, -999.0
09-11-2023, 00:44:57,    168,    0.0,    3.7,   0.00,   0.00,  999.2,    0.6, -999.0
09-11-2023, 00:45:07,    189,    0.0,    3.7,   0.00,   0.00,  999.3,    0.6, -999.0
09-11-2023, 00:45:18,    188,    0.1,    3.7,   0.00,   0.00,  999.3,    0.6, -999.0
09-11-2023, 00:45:27,    188,    0.2,    3.8,   0.00,   0.00,  999.3,    0.6, -999.0
09-11-2023, 00:45:37,    188,    0.0,    3.6,   0.00,   0.00,  999.3,    0.5, -999.0
09-11-2023, 00:45:47,    188,    0.0,    3.7,   0.00,   0.00,  999.3,    0.6, -999.0
09-11-2023, 00:45:57,    187,    0.6,    3.7,   0.00,   0.00,  999.4,    0.6, -999.0
09-11-2023, 00:46:07,    186,    0.0,    3.7,   0.00,   0.00,  999.3,    0.3, -999.0
09-11-2023, 00:46:17,    187,    0.0,    3.7,   0.00,   0.00,  999.2,    0.9, -999.0
09-11-2023, 00:46:27,    187,    0.0,    3.7,   0.00,   0.00,  999.3,    0.6, -999.0
09-11-2023, 00:46:37,    187,    0.1,    3.7,   0.00,   0.00,  999.3,    0.5, -999.0
09-11-2023, 00:46:47,    186,    0.2,    3.7,   0.00,   0.00,  999.3,    0.5, -999.0